LiveATC.Net - Listen to live air traffic control over the Internet!


ICAO: KFCM  IATA: FCM   Airport: Flying Cloud Airport
City: Minneapolis   State/Province: Minnesota
Country: United States   Continent: North America
KFCM METAR Weather: KFCM 221853Z 18008KT 9SM CLR 04/M03 A2993 RMK AO2 SLP144 T00391028
KFCM Flight Activity (FlightAware)
KFCM Airport Info   (iFlightPlanner)
KFCM VFR Sectional Chart   (iFlightPlanner) 
KFCM IFR Low Chart   (iFlightPlanner) 

KFCM Tower
Feed Status: UP   Listeners: 6
Listen in your browser - HTML5 player (in browser, HTML5)
Click here to listen with your own player (launches your MP3 player)
Archive Access: KFCM Tower
FacilityFrequency
Flying Cloud Tower119.150

NOTICE

Unauthorized use prohibited. See LiveATC.net Terms of Service


Airport/ARTCC Code
Frequency Search
(e.g., 124.400, 128.75)
Site-wide search
 


Browse Feeds
Top 50 Feeds
Coverage Map
Bad Weather Areas

LiveATC FAQ
Offer LiveATC feed
Contact LiveATC.net
Press Inquiries

LiveATC on iPhone
LiveATC on Android

Windows Phone
Windows 8/10

LiveATC Mobile
(Mobile browser)

ATC Audio Archives
Interesting Recordings

LiveATC Forums


Home Page
About LiveATC.net
Make a Donation
Terms of Use
Privacy Policy

Canadian Air Freqs

AIRMETs/SIGMETs

FAA Airport Status
Nat'l Airspace Status
Arrival Demand Charts


Server Software By:
Icecast.org
Liquidsoap